Regional Weather Roundup
Issued by NWS

Home | Current Version | Previous Version | Graphics & Text | Print | Product List | Glossary On
Versions: 1 2 3 4 5 6 7 8 9 10 11 12 13 14 15 16 17 18 19 20 21 22 23 24 25 26 27 28 29 30 31 32 33 34 35 36 37 38 39 40 41 42 43 44 45 46 47 48 49 50
000
ASUS43 KLMK 282310
RWRKY
KENTUCKY REGIONAL WEATHER ROUNDUP
NATIONAL WEATHER SERVICE LOUISVILLE KY
700 PM EDT THU MAY 28 2015

NOTE "FAIR" INDICATES FEW OR NO CLOUDS BELOW 12,000 FEET
WITH NO SIGNIFICANT WEATHER AND/OR OBSTRUCTIONS TO VISIBILITY.

KYZ001>023-026-027-061>063-070>075-290000-
WESTERN AND SOUTH CENTRAL KENTUCKY

CITY           SKY/WX    TMP DP  RH WIND       PRES   REMARKS
PADUCAH        MOSUNNY   82  63  52 S3        30.07F
HENDERSON      MOSUNNY   82  64  54 S7        30.07F
OWENSBORO      SUNNY     84  67  56 S5        30.10F
HOPKINSVILLE   MOSUNNY   81  65  58 E6        30.09F
BOWLING GREEN  PTSUNNY   81  65  58 E7        30.11F
GLASGOW        MOSUNNY   80  62  54 CALM      30.13S
$$

KYZ024-025-028>034-038-045-046-053-290000-
NORTH CENTRAL KENTUCKY

CITY           SKY/WX    TMP DP  RH WIND       PRES   REMARKS
LOUISVILLE/SDF PTSUNNY   77  68  73 E12       30.13F
LOUISVILLE/LOU LGT RAIN  74  69  85 E5        30.14F
FORT KNOX      MOSUNNY   77  67  71 E9        30.11F
$$

KYZ035>037-039>044-047>052-055>060-089>105-290000-
NORTHEAST KENTUCKY

CITY           SKY/WX    TMP DP  RH WIND       PRES   REMARKS
LEXINGTON      CLOUDY    77  65  66 S7        30.17F
COVINGTON      MOSUNNY   80  63  55 SE7       30.15F
FRANKFORT      PTSUNNY   77  64  64 NE5       30.15F
$$

KYZ054-064>069-076>088-106>120-290000-
SOUTHEAST KENTUCKY

CITY           SKY/WX    TMP DP  RH WIND       PRES   REMARKS
JACKSON        CLOUDY    77  66  68 CALM      30.18F
LONDON         CLOUDY    75  64  68 E3        30.18F
SOMERSET       CLOUDY    70  64  83 NE3       30.18S
MIDDLESBORO    CLOUDY    74  69  83 CALM      30.18S
MONTICELLO     MOCLDY    73  68  84 NE7       30.19S
$$



USA.gov is the U.S. government's official web portal to all federal, state and local government web resources and services.